Time,TemperatureF,DewpointF,PressureIn,WindDirection,WindDirectionDegrees,WindSpeedMPH,WindSpeedGustMPH,Humidity,HourlyPrecipIn,Conditions,Clouds,dailyrainin,SolarRadiationWatts/m^2,SoftwareType,DateUTC
2013-06-18 00:11:00,73.9,49.0,29.55,ESE,109,8.0,-999.0,42,-99.99,,,0.00,0,weatherlink.com 1.10,2013-06-18 06:11:00,
2013-06-18 00:26:00,72.5,50.0,29.56,NE,34,8.0,-999.0,45,-99.99,,,0.00,0,weatherlink.com 1.10,2013-06-18 06:26:00,
2013-06-18 00:41:00,71.3,50.0,29.57,NE,52,7.0,-999.0,47,-99.99,,,0.00,0,weatherlink.com 1.10,2013-06-18 06:41:00,
2013-06-18 00:56:00,70.1,50.0,29.57,ENE,78,6.0,-999.0,49,-99.99,,,0.00,0,weatherlink.com 1.10,2013-06-18 06:56:00,
2013-06-18 01:11:00,69.4,50.0,29.57,ENE,57,7.0,-999.0,51,-99.99,,,0.00,0,weatherlink.com 1.10,2013-06-18 07:11:00,
2013-06-18 01:26:00,68.7,50.0,29.57,East,86,13.0,-999.0,52,-99.99,,,0.00,0,weatherlink.com 1.10,2013-06-18 07:26:00,
2013-06-18 01:41:00,68.3,50.0,29.57,East,88,3.0,-999.0,53,-99.99,,,0.00,0,weatherlink.com 1.10,2013-06-18 07:41:00,
2013-06-18 01:56:00,68.2,50.0,29.57,ENE,74,4.0,-999.0,53,-99.99,,,0.00,0,weatherlink.com 1.10,2013-06-18 07:56:00,
2013-06-18 02:11:00,68.8,50.0,29.58,ENE,75,1.0,-999.0,51,-99.99,,,0.00,0,weatherlink.com 1.10,2013-06-18 08:11:00,
2013-06-18 02:26:00,69.2,50.0,29.58,ENE,61,0.0,-999.0,51,-99.99,,,0.00,0,weatherlink.com 1.10,2013-06-18 08:26:00,
2013-06-18 02:41:00,69.1,50.0,29.59,NNW,327,0.0,-999.0,50,-99.99,,,0.00,0,weatherlink.com 1.10,2013-06-18 08:41:00,
2013-06-18 02:56:00,69.1,51.0,29.60,NE,42,3.0,-999.0,52,-99.99,,,0.00,0,weatherlink.com 1.10,2013-06-18 08:56:00,
2013-06-18 03:11:00,67.9,52.0,29.60,ENE,71,6.0,-999.0,57,-99.99,,,0.00,0,weatherlink.com 1.10,2013-06-18 09:11:00,
2013-06-18 03:26:00,67.5,52.0,29.60,NE,45,4.0,-999.0,58,-99.99,,,0.00,0,weatherlink.com 1.10,2013-06-18 09:26:00,
2013-06-18 03:41:00,67.0,52.0,29.61,NE,34,5.0,-999.0,59,-99.99,,,0.00,0,weatherlink.com 1.10,2013-06-18 09:41:00,
2013-06-18 03:56:00,66.8,52.0,29.61,ENE,71,6.0,-999.0,59,-99.99,,,0.00,0,weatherlink.com 1.10,2013-06-18 09:56:00,
2013-06-18 04:11:00,66.5,52.0,29.61,NE,47,2.0,-999.0,59,-99.99,,,0.00,0,weatherlink.com 1.10,2013-06-18 10:11:00,
2013-06-18 04:26:00,66.2,51.0,29.61,NE,34,0.0,-999.0,59,-99.99,,,0.00,0,weatherlink.com 1.10,2013-06-18 10:26:00,
2013-06-18 04:41:00,66.2,51.0,29.61,NE,45,1.0,-999.0,58,-99.99,,,0.00,0,weatherlink.com 1.10,2013-06-18 10:41:00,
2013-06-18 04:56:00,66.1,51.0,29.61,NE,36,2.0,-999.0,58,-99.99,,,0.00,0,weatherlink.com 1.10,2013-06-18 10:56:00,
2013-06-18 05:11:00,65.8,51.0,29.62,ENE,60,0.0,-999.0,59,-99.99,,,0.00,0,weatherlink.com 1.10,2013-06-18 11:11:00,
2013-06-18 05:26:00,65.6,51.0,29.62,ENE,59,0.0,-999.0,59,-99.99,,,0.00,0,weatherlink.com 1.10,2013-06-18 11:26:00,
2013-06-18 05:41:00,65.3,50.0,29.63,ENE,59,0.0,-999.0,59,-99.99,,,0.00,0,weatherlink.com 1.10,2013-06-18 11:41:00,
2013-06-18 05:56:00,64.5,51.0,29.64,ENE,59,0.0,-999.0,61,-99.99,,,0.00,0,weatherlink.com 1.10,2013-06-18 11:56:00,
2013-06-18 06:11:00,64.0,50.0,29.64,ENE,59,0.0,-999.0,61,-99.99,,,0.00,9,weatherlink.com 1.10,2013-06-18 12:11:00,
2013-06-18 06:26:00,64.0,50.0,29.65,NE,49,0.0,-999.0,61,-99.99,,,0.00,14,weatherlink.com 1.10,2013-06-18 12:26:00,
2013-06-18 06:42:00,64.6,51.0,29.65,NE,52,0.0,-999.0,61,-99.99,,,0.00,21,weatherlink.com 1.10,2013-06-18 12:42:00,
2013-06-18 06:57:00,65.6,52.0,29.65,ENE,58,0.0,-999.0,61,-99.99,,,0.00,30,weatherlink.com 1.10,2013-06-18 12:57:00,
2013-06-18 07:12:00,66.5,51.0,29.66,NE,42,0.0,-999.0,58,-99.99,,,0.00,39,weatherlink.com 1.10,2013-06-18 13:12:00,
2013-06-18 07:27:00,67.4,51.0,29.66,NE,42,0.0,-999.0,57,-99.99,,,0.00,49,weatherlink.com 1.10,2013-06-18 13:27:00,
2013-06-18 07:42:00,68.1,51.0,29.67,NE,42,0.0,-999.0,55,-99.99,,,0.00,56,weatherlink.com 1.10,2013-06-18 13:42:00,
2013-06-18 07:57:00,69.1,52.0,29.67,NE,42,0.0,-999.0,54,-99.99,,,0.00,128,weatherlink.com 1.10,2013-06-18 13:57:00,
2013-06-18 08:12:00,70.5,52.0,29.67,NNW,346,0.0,-999.0,52,-99.99,,,0.00,74,weatherlink.com 1.10,2013-06-18 14:12:00,
2013-06-18 08:27:00,73.0,52.0,29.68,NW,319,1.0,-999.0,48,-99.99,,,0.00,396,weatherlink.com 1.10,2013-06-18 14:27:00,
2013-06-18 08:42:00,74.7,52.0,29.68,NNW,331,2.0,-999.0,45,-99.99,,,0.00,436,weatherlink.com 1.10,2013-06-18 14:42:00,
2013-06-18 08:57:00,76.3,51.0,29.68,NW,316,0.0,-999.0,42,-99.99,,,0.00,485,weatherlink.com 1.10,2013-06-18 14:57:00,
2013-06-18 09:12:00,78.1,52.0,29.68,NW,316,1.0,-999.0,40,-99.99,,,0.00,538,weatherlink.com 1.10,2013-06-18 15:12:00,
2013-06-18 09:27:00,79.5,52.0,29.68,North,5,2.0,-999.0,38,-99.99,,,0.00,599,weatherlink.com 1.10,2013-06-18 15:27:00,
2013-06-18 09:42:00,78.5,51.0,29.67,NE,46,6.0,-999.0,39,-99.99,,,0.00,631,weatherlink.com 1.10,2013-06-18 15:42:00,
2013-06-18 09:57:00,78.1,52.0,29.67,NE,55,4.0,-999.0,40,-99.99,,,0.00,861,weatherlink.com 1.10,2013-06-18 15:57:00,
2013-06-18 10:12:00,77.8,52.0,29.67,ESE,122,1.0,-999.0,40,-99.99,,,0.00,155,weatherlink.com 1.10,2013-06-18 16:12:00,
2013-06-18 10:27:00,77.1,52.0,29.67,ENE,60,0.0,-999.0,41,-99.99,,,0.00,179,weatherlink.com 1.10,2013-06-18 16:27:00,
2013-06-18 10:42:00,77.2,52.0,29.67,WSW,256,4.0,-999.0,41,-99.99,,,0.00,302,weatherlink.com 1.10,2013-06-18 16:42:00,
2013-06-18 10:57:00,78.0,51.0,29.67,WSW,253,3.0,-999.0,39,-99.99,,,0.00,272,weatherlink.com 1.10,2013-06-18 16:57:00,
2013-06-18 11:12:00,79.8,52.0,29.67,WNW,303,0.0,-999.0,38,-99.99,,,0.00,904,weatherlink.com 1.10,2013-06-18 17:12:00,
2013-06-18 11:27:00,82.6,51.0,29.66,NNE,17,2.0,-999.0,34,-99.99,,,0.00,974,weatherlink.com 1.10,2013-06-18 17:27:00,
2013-06-18 11:42:00,81.0,51.0,29.66,East,82,1.0,-999.0,35,-99.99,,,0.00,146,weatherlink.com 1.10,2013-06-18 17:42:00,
2013-06-18 11:57:00,82.0,52.0,29.65,ENE,59,1.0,-999.0,35,-99.99,,,0.00,990,weatherlink.com 1.10,2013-06-18 17:57:00,
2013-06-18 12:12:00,82.9,52.0,29.64,NE,42,2.0,-999.0,34,-99.99,,,0.00,345,weatherlink.com 1.10,2013-06-18 18:12:00,
2013-06-18 12:28:00,83.8,51.0,29.64,East,93,1.0,-999.0,32,-99.99,,,0.00,997,weatherlink.com 1.10,2013-06-18 18:28:00,
2013-06-18 12:43:00,83.8,51.0,29.63,South,169,1.0,-999.0,32,-99.99,,,0.00,923,weatherlink.com 1.10,2013-06-18 18:43:00,
2013-06-18 12:58:00,84.2,50.0,29.62,ESE,114,6.0,-999.0,31,-99.99,,,0.00,932,weatherlink.com 1.10,2013-06-18 18:58:00,
2013-06-18 13:13:00,84.1,50.0,29.62,South,190,6.0,-999.0,31,-99.99,,,0.00,932,weatherlink.com 1.10,2013-06-18 19:13:00,
2013-06-18 13:28:00,85.1,50.0,29.61,SE,134,1.0,-999.0,30,-99.99,,,0.00,944,weatherlink.com 1.10,2013-06-18 19:28:00,
2013-06-18 13:43:00,85.3,49.0,29.60,ESE,108,0.0,-999.0,28,-99.99,,,0.00,954,weatherlink.com 1.10,2013-06-18 19:43:00,
2013-06-18 13:58:00,87.2,48.0,29.59,ESE,113,0.0,-999.0,26,-99.99,,,0.00,940,weatherlink.com 1.10,2013-06-18 19:58:00,
2013-06-18 14:13:00,88.0,48.0,29.58,East,100,1.0,-999.0,25,-99.99,,,0.00,919,weatherlink.com 1.10,2013-06-18 20:13:00,
2013-06-18 14:28:00,87.9,46.0,29.57,SE,138,4.0,-999.0,23,-99.99,,,0.00,919,weatherlink.com 1.10,2013-06-18 20:28:00,
2013-06-18 14:43:00,88.9,37.0,29.57,WSW,238,2.0,-999.0,16,-99.99,,,0.00,886,weatherlink.com 1.10,2013-06-18 20:43:00,
2013-06-18 14:58:00,89.5,41.0,29.56,ESE,116,1.0,-999.0,18,-99.99,,,0.00,860,weatherlink.com 1.10,2013-06-18 20:58:00,
2013-06-18 15:13:00,88.9,42.0,29.56,WNW,284,5.0,-999.0,19,-99.99,,,0.00,833,weatherlink.com 1.10,2013-06-18 21:13:00,
2013-06-18 15:28:00,89.0,43.0,29.55,SSE,159,7.0,-999.0,20,-99.99,,,0.00,793,weatherlink.com 1.10,2013-06-18 21:28:00,
2013-06-18 15:43:00,88.2,42.0,29.55,SSW,195,1.0,-999.0,20,-99.99,,,0.00,53,weatherlink.com 1.10,2013-06-18 21:43:00,
2013-06-18 15:58:00,87.8,42.0,29.54,SSE,156,2.0,-999.0,20,-99.99,,,0.00,42,weatherlink.com 1.10,2013-06-18 21:58:00,
2013-06-18 16:13:00,88.2,42.0,29.53,South,171,8.0,-999.0,20,-99.99,,,0.00,40,weatherlink.com 1.10,2013-06-18 22:13:00,
2013-06-18 16:28:00,87.5,42.0,29.53,SSW,195,6.0,-999.0,20,-99.99,,,0.00,37,weatherlink.com 1.10,2013-06-18 22:28:00,
2013-06-18 16:43:00,87.6,42.0,29.52,SSE,166,1.0,-999.0,20,-99.99,,,0.00,33,weatherlink.com 1.10,2013-06-18 22:43:00,
2013-06-18 16:58:00,87.7,42.0,29.51,West,281,5.0,-999.0,20,-99.99,,,0.00,32,weatherlink.com 1.10,2013-06-18 22:58:00,
2013-06-18 17:13:00,87.8,41.0,29.50,South,182,10.0,-999.0,19,-99.99,,,0.00,30,weatherlink.com 1.10,2013-06-18 23:13:00,
2013-06-18 17:28:00,88.2,40.0,29.49,SSW,204,3.0,-999.0,18,-99.99,,,0.00,28,weatherlink.com 1.10,2013-06-18 23:28:00,
2013-06-18 17:43:00,88.2,40.0,29.48,SW,235,7.0,-999.0,18,-99.99,,,0.00,26,weatherlink.com 1.10,2013-06-18 23:43:00,
2013-06-18 17:58:00,88.2,38.0,29.48,South,174,11.0,-999.0,17,-99.99,,,0.00,25,weatherlink.com 1.10,2013-06-18 23:58:00,
2013-06-18 18:13:00,88.2,38.0,29.47,SSW,205,6.0,-999.0,17,-99.99,,,0.00,23,weatherlink.com 1.10,2013-06-19 00:13:00,
2013-06-18 18:28:00,88.2,38.0,29.47,SSW,192,8.0,-999.0,17,-99.99,,,0.00,23,weatherlink.com 1.10,2013-06-19 00:28:00,
2013-06-18 18:43:00,88.3,38.0,29.47,South,172,5.0,-999.0,17,-99.99,,,0.00,21,weatherlink.com 1.10,2013-06-19 00:43:00,
2013-06-18 18:58:00,88.1,38.0,29.46,SW,221,1.0,-999.0,17,-99.99,,,0.00,19,weatherlink.com 1.10,2013-06-19 00:58:00,
2013-06-18 19:13:00,88.1,38.0,29.46,SSE,164,6.0,-999.0,17,-99.99,,,0.00,16,weatherlink.com 1.10,2013-06-19 01:13:00,
2013-06-18 19:28:00,87.9,39.0,29.46,SW,221,7.0,-999.0,18,-99.99,,,0.00,14,weatherlink.com 1.10,2013-06-19 01:28:00,
2013-06-18 19:43:00,87.7,39.0,29.46,South,190,3.0,-999.0,18,-99.99,,,0.00,12,weatherlink.com 1.10,2013-06-19 01:43:00,
2013-06-18 19:58:00,87.3,39.0,29.46,SSW,212,1.0,-999.0,18,-99.99,,,0.00,9,weatherlink.com 1.10,2013-06-19 01:58:00,
2013-06-18 20:13:00,86.9,39.0,29.45,South,188,0.0,-999.0,18,-99.99,,,0.00,5,weatherlink.com 1.10,2013-06-19 02:13:00,
2013-06-18 20:28:00,85.9,39.0,29.45,South,188,0.0,-999.0,19,-99.99,,,0.00,0,weatherlink.com 1.10,2013-06-19 02:28:00,
2013-06-18 20:43:00,84.8,40.0,29.45,South,188,0.0,-999.0,20,-99.99,,,0.00,0,weatherlink.com 1.10,2013-06-19 02:43:00,
2013-06-18 20:58:00,83.7,39.0,29.45,South,188,0.0,-999.0,20,-99.99,,,0.00,0,weatherlink.com 1.10,2013-06-19 02:58:00,
2013-06-18 21:13:00,82.6,38.0,29.45,South,188,0.0,-999.0,20,-99.99,,,0.00,0,weatherlink.com 1.10,2013-06-19 03:13:00,
2013-06-18 21:28:00,81.8,38.0,29.45,South,189,0.0,-999.0,21,-99.99,,,0.00,0,weatherlink.com 1.10,2013-06-19 03:28:00,
2013-06-18 21:43:00,82.2,41.0,29.46,South,187,4.0,-999.0,23,-99.99,,,0.00,0,weatherlink.com 1.10,2013-06-19 03:43:00,
2013-06-18 21:58:00,82.7,43.0,29.46,SSW,192,8.0,-999.0,25,-99.99,,,0.00,0,weatherlink.com 1.10,2013-06-19 03:58:00,
2013-06-18 22:13:00,82.7,43.0,29.46,SSE,157,1.0,-999.0,25,-99.99,,,0.00,0,weatherlink.com 1.10,2013-06-19 04:13:00,
2013-06-18 22:28:00,82.8,42.0,29.46,SSW,202,2.0,-999.0,24,-99.99,,,0.00,0,weatherlink.com 1.10,2013-06-19 04:28:00,
2013-06-18 22:43:00,82.2,43.0,29.46,SSW,209,0.0,-999.0,25,-99.99,,,0.00,0,weatherlink.com 1.10,2013-06-19 04:43:00,
2013-06-18 22:58:00,82.0,42.0,29.46,South,190,3.0,-999.0,24,-99.99,,,0.00,0,weatherlink.com 1.10,2013-06-19 04:58:00,
2013-06-18 23:13:00,81.6,43.0,29.46,SSW,192,3.0,-999.0,25,-99.99,,,0.00,0,weatherlink.com 1.10,2013-06-19 05:13:00,
2013-06-18 23:28:00,81.2,42.0,29.45,SW,218,2.0,-999.0,25,-99.99,,,0.00,0,weatherlink.com 1.10,2013-06-19 05:28:00,
2013-06-18 23:43:00,81.0,42.0,29.45,SW,217,10.0,-999.0,25,-99.99,,,0.00,0,weatherlink.com 1.10,2013-06-19 05:43:00,
2013-06-18 23:58:00,80.3,42.0,29.45,SSW,203,5.0,-999.0,26,-99.99,,,0.00,0,weatherlink.com 1.10,2013-06-19 05:58:00,